Vasileios Tzolis

Chefscout - AEL Larisa
11 Mär 2027
Donnerstag
Verarbeitung

Persönlichkeit

Anpassungsfähigkeit (11) Ehrgeiz (17) Kontroverse (18) Loyalität (10) Druck (9) Professionalität (1) Fairness (18) Temperament (19)

Profil

Trainerstil Demokratisch
Lizenz Kontinentale B
Entschlossenheit 11
Menschenführung 4
Motivation 3
Disziplin 3
Arbeitszufriedenheit
84%
Ermüdung
0%
Rolle Chefscout
Gehalt 69.4K p/W
Vertrag 14.03.2029

Leistung

Verhalten Gut
Trainingseffektivität
36%
Spielerentwicklung
25%
Verletzungsprävention
45%
Taktische Umsetzung
50%

Letzte Ereignisse

Nahm an einer Scouting-Besprechung teil jetzt
Empfahl ein Transferziel jetzt
Nahm an einer Scouting-Besprechung teil jetzt
Nahm an einer Scouting-Besprechung teil jetzt
Nahm an einer Scouting-Besprechung teil jetzt
Spieler begutachtet 7T her
Spieler begutachtet 7T her
Spieler begutachtet 7T her

Aktuell beobachtet

82
Spieler Verein Status Fähigkeit Vertrauen Beobachtet Zuletzt beobachtet Letzte Stimme
Jack Diamond Stockport County Aktiv 104 / 112 40% 2 10.03.2027 -
Ronald Swansea City Aktiv 127 / 124 40% 1 10.03.2027 -
Tshepang Moremi Orlando Pirates Aktiv 105 / 117 40% 3 09.03.2027 Mehr Infos nötig
Othmane Maamma Watford Aktiv 122 / 135 40% 2 07.03.2027 -
Milan van Ewijk Mansfield Town Aktiv 121 / 125 40% 1 07.03.2027 -
Keagan Mothiba SuperSport United Aktiv 101 / 109 40% 3 06.03.2027 Beobachten
Othmane Boussaid Aris Thessaloniki Aktiv 135 / 131 40% 1 06.03.2027 -
Tomáš Rigo Stoke City Aktiv 120 / 143 40% 1 05.03.2027 -
Sonny Carey Charlton Athletic Aktiv 111 / 114 40% 1 05.03.2027 -
Louie Barry Sheffield Wednesday Aktiv 110 / 117 40% 2 04.03.2027 -
Kwame Poku Queens Park Rangers Aktiv 123 / 116 40% 1 04.03.2027 -
Mduduzi Shabalala Kaizer Chiefs Aktiv 98 / 126 40% 2 03.03.2027 Mehr Infos nötig
Jason Knight Bristol City Aktiv 138 / 128 40% 2 03.03.2027 -
Williams Manyama SuperSport United Aktiv 106 / 112 40% 2 01.03.2027 -
Daniel Kyerewaa Reading Aktiv 100 / 119 40% 1 01.03.2027 -
Brian De Keersmaecker Oxford United Aktiv 113 / 128 40% 1 01.03.2027 -
Mathias Jørgensen Blackburn Rovers Aktiv 104 / 104 40% 1 27.02.2027 -
Siyanda Ndlovu Bloemfontein Celtic Aktiv 131 / 117 40% 1 27.02.2027 -
Isaiah Jones Luton Town Aktiv 136 / 115 40% 5 26.02.2027 -
Isaac Price West Bromwich Albion Aktiv 118 / 141 40% 1 26.02.2027 -
Bradley Zwane Platinum Stars Aktiv 121 / 99 40% 1 23.02.2027 -
Sergio Arribas Almería Aktiv 155 / 143 40% 4 21.02.2027 -
Oswin Appollis Orlando Pirates Aktiv 129 / 114 40% 2 21.02.2027 -
Kwadwo Baah Watford Aktiv 139 / 114 40% 1 20.02.2027 -
Ethan Williams Peterborough United Aktiv 113 / 117 40% 3 19.02.2027 -
Richard Koné Queens Park Rangers Aktiv 118 / 118 40% 2 19.02.2027 -
Gustavo Assunção Apollon Aktiv 108 / 104 40% 1 17.02.2027 -
Mandla Erasmus SuperSport United Aktiv 119 / 136 40% 3 16.02.2027 -
Ronaldo Rostov Aktiv 127 / 123 40% 1 16.02.2027 -
Jack Rudoni Coventry City Aktiv 142 / 132 40% 2 15.02.2027 -
Cian Ashford Cardiff City Aktiv 123 / 130 40% 2 14.02.2027 -
Derensili Sanches Fernandes Huddersfield Town Aktiv 136 / 111 40% 2 13.02.2027 -
Danyil Alefirenko Chornomorets Aktiv 103 / 106 40% 1 13.02.2027 -
Ali Youssef Apollon Aktiv 139 / 105 40% 3 12.02.2027 -
Josh Tymon Swansea City Aktiv 126 / 132 40% 1 08.02.2027 -
Tim Iroegbunam Hull City Aktiv 130 / 131 40% 1 08.02.2027 -
Ethan Galbraith Swansea City Aktiv 140 / 145 40% 1 07.02.2027 -
David Turnbull Cardiff City Aktiv 121 / 109 40% 1 07.02.2027 -
César Gelabert Gijón Aktiv 157 / 130 40% 1 05.02.2027 -
Scott Twine Bristol City Aktiv 112 / 112 40% 1 05.02.2027 -
Loum Tchaouna Coventry City Aktiv 148 / 138 40% 2 02.02.2027 -
Jaden Philogene Ipswich Town Aktiv 132 / 130 40% 1 01.02.2027 -
Sergio Lozano Jagiellonia Aktiv 120 / 115 40% 1 01.02.2027 -
Nikola Stajić Panetolikos Aktiv 110 / 110 55% 1 06.01.2027 -
Marek Sestak FK Senica Verloren 110 / 119 66% 1 01.01.2027 Befürworten
Themba Ngcobo SuperSport United Bericht bereit 116 / 116 66% 1 01.01.2027 Befürworten
Zian Flemming Ipswich Town Aktiv 125 / 129 40% 1 31.12.2026 -
Tom Cannon Sheffield United Aktiv 118 / 113 40% 1 31.12.2026 -
Sayfallah Ltaief Cracovia Aktiv 122 / 119 40% 1 28.12.2026 -
Harry Clarke Preston Aktiv 120 / 132 40% 1 26.12.2026 -
Sorba Thomas Stoke City Aktiv 141 / 116 40% 1 26.12.2026 -
Florentino Luís Ipswich Town Aktiv 150 / 127 40% 1 22.12.2026 -
Nicolás Andereggen Ethnikos Achnas Aktiv 95 / 120 40% 1 22.12.2026 -
Max Bird Birmingham Aktiv 141 / 134 40% 1 21.12.2026 -
Juergen Elitím Bohemians 1905 Aktiv 124 / 115 40% 1 21.12.2026 -
Jack McGlynn Stoke City Aktiv 113 / 128 40% 1 19.12.2026 -
Reda Khadra Qarabag Verloren 117 / 144 40% 3 17.12.2026 -
Angelo Gattermayer Wolfsberger AC Verloren 133 / 114 40% 1 17.12.2026 -
Alan Lescano Argentinos Juniors Verloren 146 / 139 40% 1 10.12.2026 -
Romano Schmid Frosinone Aktiv 152 / 137 40% 1 09.12.2026 -
Suleiman Camara Slovan Bratislava Aktiv 122 / 119 40% 1 09.12.2026 -
Denzel Jubitana Neftchi Aktiv 119 / 120 40% 1 06.12.2026 -
Veljko Nikolić Aris Aktiv 99 / 121 40% 2 02.12.2026 -
Eren Aydın Zira Aktiv 100 / 102 40% 1 02.12.2026 -
Alex Opoku Sarfo Aris Aktiv 104 / 135 40% 2 30.11.2026 -
Everton Bala Levski Aktiv 126 / 133 40% 3 30.11.2026 -
Petr Juliš Slovan Liberec Aktiv 118 / 110 40% 1 29.11.2026 -
Bongani Modiba Black Aces Aktiv 101 / 123 40% 1 29.11.2026 -
Marcelo Allende Mamelodi Sundowns Aktiv 130 / 121 40% 1 28.11.2026 -
Yerson Chacón AE Kition Aktiv 103 / 114 40% 1 23.11.2026 -
Petar Stanić Ludogorets Aktiv 126 / 131 40% 1 22.11.2026 -
Enzo Cabrera AE Kition Aktiv 99 / 103 40% 1 21.11.2026 -
Tiago Manso Kifisia Aktiv 118 / 117 40% 1 21.11.2026 -
Chiquinho Alverca Aktiv 123 / 121 40% 1 20.11.2026 -
Sebastián Medina Tigre Aktiv 111 / 132 40% 1 12.11.2026 -
Andreas Chrysostomou Anorthosis Aktiv 119 / 97 40% 1 12.11.2026 -
Ola Brynhildsen Bodo/Glimt Aktiv 118 / 126 40% 1 07.11.2026 -
Joel Asoro Apollon Aktiv 116 / 134 40% 1 07.11.2026 -
Riqui Puig LA Galaxy Aktiv 139 / 121 40% 1 06.11.2026 -
Aljoša Matko Ujpest Aktiv 116 / 117 40% 1 03.11.2026 -
Derek Agyakwa Volos NPS Aktiv 94 / 101 55% 1 31.08.2026 -
Florin Tănase Omonoia Aktiv 135 / 117 40% 1 01.08.2026 -